sat.trackr.live / text

‹ back to catalog

STARLINK-2291

NORAD 47862 · 2021-021C

PAYLOAD ACTIVE UNKNOWN

§ Identity

Operator
Country
US
Launch date
2021-03-14
Launch site
AFETR
Launch vehicle
Mass (kg)
RCS (m²)

Purposes: comms

External: N2YO · Heavens-Above · Gunter

§ Orbital elements

Epoch: 2026-09-12T22:49:45.064128Z

Period
87.81 min
Inclination
53.1335°
Eccentricity
0.0010315
Mean motion
16.39898369 rev/d
Perigee alt
159.3 km
Apogee alt
172.8 km
Semi-major
6,544.2 km
B*
6.3051e-4
RAAN
61.5635°
Arg perigee
294.0596°
Mean anomaly
65.9372°
Rev number
30,570

§ Raw data

STARLINK-22911 47862U 21021C   26255.95121602  .08762779  12421-4  63051-3 0  99972 47862  53.1335  61.5635 0010315 294.0596  65.9372 16.39898369305709

JSON: /api/v1/satellites/47862 · /tle

For live sub-satellite position, see the globe view (requires WebGL).

§ Visibility from observer

Set your observer location to see the next 7 days of passes ≥ 10°. The values pass through the URL so the page stays shareable.

No JS? Fill the form by hand. The geolocation button needs JavaScript.